ボリソフ彗星

C/2019 V1 ( Borisov )

English version
Home page
Updated on January 23, 2020

---------------------------------------------------------------------

・ プロフィール

発見日 2019年11月2日
発見光度 19.0等
発見者 G. Borisov (MARGO observatory near Nauchnij, Crimea)

・ 写真集

・ 軌道要素

Epoch 2020 July 10.0 TT = JDT 2459040.5
T 2020 July 16.56337 TT                                 Williams
q   3.0972984            (2000.0)            P               Q
z  +0.0004361      Peri.   51.19661     -0.29077909     -0.38563396
 +/-0.0000892      Node    83.20553     +0.33743681     -0.89770690
e   0.9986492      Incl.   61.86350     +0.89531219     +0.21309334
From 79 observations 2019 Nov. 2-2020 Jan. 6, mean residual 0".6.

・ 光度変化

        m1 = 10.5 + 5 logΔ + 10.0 log r

---------------------------------------------------------------------

軌道要素はM.P.E.C. 2020-A105に掲載されたものです。
光度グラフはComet for Windowsで作成したものです。

---------------------------------------------------------------------

Copyright(C) Seiichi Yoshida (comet@aerith.net). All rights reserved.